Regional Weather Roundup
Issued by NWS

Home | Current Version | Previous Version | Text Only | Print | Product List | Glossary Off
Versions: 1 2 3 4 5 6 7 8 9 10 11 12 13 14 15 16 17 18 19 20 21 22 23 24 25 26 27 28 29 30 31 32 33 34 35 36 37 38 39 40 41 42 43 44 45 46 47 48 49 50

000
ASUS43 KFSD 271902
RWRSD

WEATHER ROUNDUP FOR SOUTH DAKOTA
NATIONAL WEATHER SERVICE SIOUX FALLS SD
200 PM CDT FRI MAR 27 2015

NOTE: "FAIR" INDICATES FEW OR NO CLOUDS BELOW 12,000 FEET WITH NO
SIGNIFICANT WEATHER AND/OR OBSTRUCTIONS TO VISIBILITY.


SDZ001>005-009-010-012>017-272000-
NORTHWEST AND NORTH CENTRAL SOUTH DAKOTA

CITY           SKY/WX    TMP DP  RH WIND       PRES   REMARKS
BUFFALO          N/A     62  37  39 NW22G28   29.88F
FAITH            N/A     59  35  40 NW10      29.92F
MOBRIDGE       CLOUDY    39  32  76 S21       29.96F
$$

SDZ012>016-024>037-041>051-057-063-072>074-272000-
SOUTHWEST AND SOUTH CENTRAL SOUTH DAKOTA

CITY           SKY/WX    TMP DP  RH WIND       PRES   REMARKS
RAPID CTY ARPT SUNNY     69  38  32 NW28G37   29.95F
PIERRE         CLOUDY    41  32  70 S21       30.00F
CUSTER         PTSUNNY   55  33  43 NW20G32   30.04S
ELLSWORTH AFB  MOSUNNY   66  38  35 NW23G36   29.94F
PHILIP         CLOUDY    59  34  39 N10       29.94F
PINE RIDGE     CLOUDY    63  35  35 NW21G28   29.98F
SPEARFISH      FAIR      63  37  39 NW22G31   30.01S
WINNER         FAIR      45  30  55 S22G28    30.02F
$$

SDZ004>011-016>023-039-040-272000-
NORTHEAST SOUTH DAKOTA

CITY           SKY/WX    TMP DP  RH WIND       PRES   REMARKS
ABERDEEN       LGT SNOW  31  22  69 S15       30.11F WCI  20
WATERTOWN      CLOUDY    33  13  43 SW7       30.11F WCI  27
SISSETON         N/A     36  10  34 SW12      30.12F
$$

SDZ017-020-022-023-036>040-048>070-272000-
SOUTHEAST SOUTH DAKOTA

CITY           SKY/WX    TMP DP  RH WIND       PRES   REMARKS
SIOUX FALLS    CLOUDY    34   9  35 S8        30.16F WCI  27
HURON          LGT SNOW  32  21  64 S13       30.12F WCI  22
MITCHELL       CLOUDY    35  19  52 S12       30.14F WCI  27
YANKTON        FAIR      36  14  41 S6        30.18F
$$

ABBREVIATIONS USED IN REMARKS
   TC - TEMPERATURE IN CELSIUS
  WCI - WIND CHILL INDEX
   HX - HEAT INDEX
  VSB - VISIBILITY



USA.gov is the U.S. government's official web portal to all federal, state and local government web resources and services.